UMBRA-09 (60541 NORAD) Tracking and Keplerian Element Data

This shows tracking and keplerian element data for the satellite.

Feedback or suggestion? Click here.




ElementValue
Catalog60541
NameUMBRA-09
Epoch Orbit850
Epoch Day286.85860293
Epoch Year2024
RAAN1.479
Inclination97.7433
Eccentricity0.0002907
Argument of Perigee321.5504
Mean Anonmoly38.5509
Mean Motion14.94581798
Decay Rate0.00021156
L11 60541U 24149CB 24286.85860293 .00021156 00000+0 19558-2 0 9993
L22 60541 97.7433 1.4790 0002907 321.5504 38.5509 14.94581798 8509



Live tracking and technical data element details for UMBRA-09 (NORAD 60541). UMBRA-09 can be tracked NOW for your location showing map with azimuth and elevation plus other details from your city location.







IsCatalogInMostPopularTable: catalog: 60541, numindb: 3
Update: records affected: 1



GetName: 60541 UMBRA-09

Hit Count: updated at: Tue, 03 Dec 2024 01:47:07 GMT